Regional Weather Roundup
Issued by NWS Newport/Morehead, NC

Current Version | Previous Version | Graphics & Text | Print | Product List | Glossary Off
Versions: 1 2 3 4 5 6 7 8 9 10 11 12 13 14 15 16 17 18 19 20 21 22 23 24 25 26 27 28 29 30 31 32 33 34 35 36 37 38 39 40 41 42 43 44 45 46 47 48 49 50
000 ASUS42 KMHX 190913 RWRMHX WEATHER ROUNDUP FOR EASTERN NORTH CAROLINA NATIONAL WEATHER SERVICE NEWPORT/MOREHEAD CITY NC 400 AM EST SUN FEB 19 2017 NOTE: "FAIR" INDICATES FEW OR NO CLOUDS BELOW 12,000 FEET WITH NO SIGNIFICANT WEATHER AND/OR OBSTRUCTIONS TO VISIBILITY NCZ015>017-031-032-045>047-102-103-191000- NORTH COAST CITY SKY/WX TMP DP RH WIND PRES REMARKS EDENTON CLEAR 56 42 59 SW6 29.88F ELIZABETH CITY CLEAR 54 40 59 S7 29.87S KITTY HAWK NOT AVBL MANTEO PTCLDY 51 46 80 SW3 29.89S $$ NCZ045>047-081-094-103-104-191000- CENTRAL COAST CITY SKY/WX TMP DP RH WIND PRES REMARKS FRISCO PTCLDY 59 52 77 W7 29.89F HAZE $$ NCZ095-097-098-100-101-191000- SOUTHERN COAST CITY SKY/WX TMP DP RH WIND PRES REMARKS BEAUFORT CLEAR 54 51 90 W5 29.90F CEDAR ISLAND NOT AVBL JACKSONVILLE MOCLDY 54 47 77 W3 29.90F PINEY ISLAND MOSUNNY N/A N/A N/A W8 29.89F WILMINGTON CLEAR 52 47 83 CALM 29.91F $$ NCZ011>013-027>030-043-044-078>080-089-090>093-098-191000- COASTAL PLAIN CITY SKY/WX TMP DP RH WIND PRES REMARKS AHOSKIE N/A 49 42 77 CALM 29.87S CLINTON CLEAR 51 45 81 CALM 29.91F ELIZABETHTOWN PTCLDY 52 46 78 NW6 29.91F GOLDSBORO PTCLDY 51 47 84 W5 29.88F GREENVILLE CLEAR 50 43 76 SW3 29.91F HAVELOCK CLEAR 51 46 83 W5 29.91S KENANSVILLE NOT AVBL KINSTON CLEAR 53 42 67 CALM 29.90F NEW BERN CLEAR 53 44 71 SW3 29.91S RICHLANDS PTCLDY 48 44 86 CALM 29.91F ROCKY MOUNT CLEAR 49 44 83 SW7 29.88F WASHINGTON CLEAR 53 41 63 W5 29.89F WHITEVILLE PTCLDY 51 45 80 CALM 29.91S $$ AMZ130-135-150-152-154-156-158-170-250-252-270-ANZ085-086-088-633-658-670-191000- MARINE OBSERVATIONS STATION/POSITION TIME TEMP WIND PRES WAVE SWELL AIR SEA DIR/SP/G HT/PER HT/PER (UTC) (F) (DEG/KT/KT) (MB) (FT/S) (FT/S) CHESAPEAKE LIGHT NOT AVBL 64 E VA BEACH 0850 56 51 240/ 16/ 17 1010.7 4/ 7 2/ 7 DUCK 0836 54 47 240/ 8/ 9 1011.1 2 E DUCK 0900 47 N/A 1/ 7 OREGON INLET 0836 52 51 200/ 8/ 9 1011.9 13E OREGON INLT NOT AVBL HATTERAS CG 0836 59 56 230/ 8/ 10 1011.9 DIAMOND BUOY 0850 66 68 240/ 14/ 16 1012.3 4/ 6 2/ 8 CAPE LOOKOUT 0900 55 270/ 8/ 9 1012.1 BEAUFORT LAB 0836 56 51 280/ 2/ 4 1011.4 30 SE NEW RVR IN 0808 62 270/ 12/ 14 1012.7 30 SE NEW RVR IN 0843 65 N/A 3/ 5 27 SE WRIGHTSVLE 0808 59 62 280/ 10/ 12 1011.8 5 SE WRIGHTSVLE 0808 57 55 290/ 6/ 8 1012.7 225 S CAPE HAT 0850 70 71 190/ 17/ 21 1014.2 4/ 6 41 SE CHARLESTON 0850 62 69 310/ 12/ 14 1013.4 3/ 6 2/ 6 $$

USA.gov is the U.S. government's official web portal to all federal, state and local government web resources and services.